Columbus, OH

8:24 AM EST on February 22, 2017 (GMT -0500)
Port Columbus International

Weather History for KCMH - May, 2014

Change the Weather History Date:

Thursday, May 8, 2014

  Actual Average Record
Temperature  
Mean Temperature 77 °F 60 °F  
Max Temperature 88 °F 71 °F 89 °F (1936)
Min Temperature 66 °F 50 °F 31 °F (1954)
Degree Days  
Heating Degree Days 0 6  
Month to date heating degree days 48 54  
Since 1 July heating degree days 5569 5136  
Cooling Degree Days 12 1  
Month to date cooling degree days 19 8  
Year to date cooling degree days 27 20  
Growing Degree Days 27 (Base 50)    
Moisture  
Dew Point 55 °F    
Average Humidity 46    
Maximum Humidity 58    
Minimum Humidity 34    
Precipitation  
Precipitation T in 0.13 in 2.06 in (1972)
Month to date precipitation 0.02 0.99  
Year to date precipitation 12.87 12.39  
Snow  
Snow 0.00 in 0.00 in 0.00 in ()
Month to date snowfall 0.0 0.0  
Since 1 July snowfall 56.4 26.7  
Snow Depth 0.00 in    
Sea Level Pressure  
Sea Level Pressure 30.01 in    
Wind  
Wind Speed 10 mph (SSW)    
Max Wind Speed 23 mph    
Max Gust Speed 30 mph    
Visibility 10 miles    
Events      
T = Trace of Precipitation, MM = Missing Value Source: NWS Daily Summary

Daily Weather History Graph

Daily Weather History Graph

Search for Another Location

Airport or City:

Trip Planner

Search our weather history database for the weather conditions in past years. The results will help you decide how hot, cold, wet, or windy it might be!

Date:

Astronomy

May. 08, 2014 Rise Set
Actual Time 6:23 AM EDT 8:33 PM EDT
Civil Twilight 5:53 AM EDT 9:03 PM EDT
Nautical Twilight 5:16 AM EDT 9:40 PM EDT
Astronomical Twilight 4:36 AM EDT 10:20 PM EDT
Moon 2:33 PM EDT (5/8) 2:53 AM EDT (5/8)
Length of Visible Light 15h 09m
Length of Day
14h 09m
Waxing Gibbous, 64% of the Moon is Illuminated
May 8
Waxing Gibbous
May 14
Full
May 21
Last Quarter
May 28
New
Jun 5
First Quarter

Hourly Weather History & Observations

Time (EDT) Temp. Heat Index Dew Point Humidity Pressure Visibility Wind Dir Wind Speed Gust Speed Precip Events Conditions
12:51 AM 71.1 °F - 53.1 °F 53% 29.96 in 10.0 mi Calm Calm - N/A   Mostly Cloudy
1:51 AM 69.1 °F - 52.0 °F 54% 29.96 in 10.0 mi Calm Calm - N/A   Overcast
2:51 AM 70.0 °F - 52.0 °F 53% 29.97 in 10.0 mi Calm Calm - 0.00 in   Mostly Cloudy
3:51 AM 69.1 °F - 52.0 °F 54% 29.99 in 10.0 mi South 8.1 mph - N/A   Overcast
4:51 AM 69.8 °F - 51.8 °F 53% 30.03 in 10.0 mi SSW 4.6 mph - N/A   Mostly Cloudy
5:51 AM 66.9 °F - 51.1 °F 57% 30.02 in 10.0 mi SSW 4.6 mph - N/A   Scattered Clouds
6:51 AM 66.9 °F - 52.0 °F 59% 30.04 in 10.0 mi SSW 6.9 mph - N/A   Mostly Cloudy
7:51 AM 69.8 °F - 53.6 °F 56% 30.07 in 10.0 mi SSW 9.2 mph - N/A   Overcast
8:51 AM 73.0 °F - 55.0 °F 53% 30.06 in 10.0 mi SSW 9.2 mph - N/A   Mostly Cloudy
9:51 AM 75.0 °F - 55.9 °F 51% 30.07 in 10.0 mi SSW 11.5 mph - N/A   Mostly Cloudy
10:51 AM 78.1 °F - 57.0 °F 48% 30.05 in 10.0 mi SW 11.5 mph - N/A   Scattered Clouds
11:51 AM 81.0 °F 81.1 °F 57.9 °F 45% 30.05 in 10.0 mi SW 12.7 mph - N/A   Mostly Cloudy
12:51 PM 84.0 °F 83.8 °F 59.0 °F 43% 30.03 in 10.0 mi SW 20.7 mph 26.5 mph N/A   Mostly Cloudy
1:51 PM 84.9 °F 84.4 °F 59.0 °F 41% 30.02 in 10.0 mi SW 19.6 mph 27.6 mph N/A   Scattered Clouds
2:51 PM 87.1 °F 86.5 °F 59.0 °F 39% 30.01 in 10.0 mi SW 17.3 mph 26.5 mph N/A   Scattered Clouds
3:51 PM 87.1 °F 85.9 °F 57.0 °F 36% 29.99 in 10.0 mi SW 19.6 mph 29.9 mph N/A   Scattered Clouds
4:51 PM 87.1 °F 85.3 °F 55.0 °F 33% 29.97 in 9.0 mi SSW 17.3 mph 26.5 mph N/A   Scattered Clouds
5:51 PM 87.1 °F 85.3 °F 55.0 °F 33% 29.96 in 10.0 mi SW 15.0 mph 21.9 mph N/A   Partly Cloudy
6:51 PM 84.9 °F 83.2 °F 53.1 °F 33% 29.96 in 10.0 mi SW 16.1 mph 26.5 mph N/A   Partly Cloudy
7:51 PM 82.9 °F 82.0 °F 55.0 °F 38% 29.97 in 10.0 mi SW 10.4 mph - N/A   Scattered Clouds
8:51 PM 81.0 °F 80.5 °F 54.0 °F 39% 30.00 in 10.0 mi SSW 10.4 mph 19.6 mph N/A   Scattered Clouds
9:51 PM 78.1 °F - 54.0 °F 43% 30.01 in 10.0 mi SSW 8.1 mph - N/A   Scattered Clouds
10:51 PM 75.2 °F - 53.6 °F 47% 30.04 in 10.0 mi South 5.8 mph - N/A   Scattered Clouds
11:51 PM 73.9 °F - 53.1 °F 48% 30.01 in 10.0 mi South 4.6 mph - N/A   Scattered Clouds